This demonstration page uses our WeatherBlox Daily Observations layout. Learn more.

Left ArrowRight Arrow

Hourly Observations for May 18, 2020

Temp ( °F °C ) Dew Point ( °F °C ) Humidity (%) Winds ( mph kmh ) Pressure ( in mb ) Visibility ( mi km ) Precip ( " mm )
12:52 am 00:52 Clear 56 13.3 50 10 81 81 WNW 5 7 29.85 1011 10 16 0.00 0.00
1:52 am 01:52 Clear 55 12.8 49 9.4 80 80 W 5 7 29.85 1011 10 16 0.00 0.00
2:52 am 02:52 Clear 54 12.2 49 9.4 83 83 W 5 7 29.83 1010 10 16 0.00 0.00
3:52 am 03:52 Clear 53 11.7 49 9.4 86 86 W 6 9 29.84 1010 10 16 0.00 0.00
4:52 am 04:52 Partly Cloudy 52 11.1 48 8.9 86 86 W 6 9 29.84 1010 10 16 0.00 0.00
5:52 am 05:52 Clear 52 11.1 48 8.9 86 86 W 7 11 29.84 1011 10 16 0.00 0.00
6:52 am 06:52 Cloudy 53 11.7 49 9.4 86 86 WNW 5 7 29.86 1011 10 16 0.00 0.00
7:52 am 07:52 Cloudy 54 12.2 50 10 87 87 W 9 15 29.88 1012 10 16 0.00 0.00
8:52 am 08:52 Cloudy 55 12.8 51 10.6 87 87 WNW 8 13 29.89 1012 10 16 0.00 0.00
9:09 am 09:09 Cloudy 55 12.8 51 10.6 87 87 WNW 7 11 29.91 1013 10 16 0.00 0.00
9:28 am 09:28 Cloudy 56 13.3 52 11.1 87 87 NW 8 13 29.91 1013 10 16 0.00 0.00
9:52 am 09:52 Cloudy 56 13.3 52 11.1 87 87 WNW 8 13 29.89 1012 10 16 0.00 0.00
10:00 am 10:00 Cloudy 56 13.3 51 10.6 84 84 NW 8 13 29.91 1013 10 16 0.00 0.00
10:52 am 10:52 Cloudy 57 13.9 49 9.4 74 74 WNW 13 20 29.89 1012 10 16 0.00 0.00
11:52 am 11:52 Cloudy 58 14.4 49 9.4 72 72 NW 10 17 29.90 1013 10 16 0.00 0.00
12:52 pm 12:52 Cloudy 59 15 49 9.4 69 69 WNW 13 20 29.90 1012 10 16 0.00 0.00
1:52 pm 13:52 Cloudy 59 15 50 10 72 72 WNW 10 17 29.91 1013 10 16 0.00 0.00
2:52 pm 14:52 Cloudy 61 16.1 51 10.6 70 70 NW 12 19 29.89 1012 10 16 0.00 0.00
3:44 pm 15:44 Cloudy 60 15.6 51 10.6 72 72 NW 10 17 29.89 1012 10 16 0.00 0.00
3:52 pm 15:52 Cloudy 60 15.6 50 10 70 70 NW 9 15 29.89 1012 10 16 0.00 0.00
4:21 pm 16:21 Cloudy 60 15.6 50 10 70 70 WNW 8 13 29.88 1012 10 16 0.00 0.00
4:52 pm 16:52 Cloudy 59 15 51 10.6 75 75 NW 10 17 29.89 1012 10 16 0.00 0.00
5:52 pm 17:52 Cloudy 58 14.4 51 10.6 78 78 NNW 13 20 29.90 1012 10 16 0.00 0.00
6:28 pm 18:28 Cloudy 58 14.4 50 10 75 75 NW 12 19 29.89 1012 10 16 0.00 0.00
6:52 pm 18:52 Cloudy 58 14.4 51 10.6 78 78 NW 9 15 29.89 1012 10 16 0.00 0.00
7:52 pm 19:52 Cloudy 57 13.9 51 10.6 81 81 NW 6 9 29.90 1012 10 16 0.00 0.00
8:25 pm 20:25 Cloudy 57 13.9 51 10.6 81 81 NW 7 11 29.89 1012 10 16 0.00 0.00
8:48 pm 20:48 Cloudy 57 14 52 11 82 82 NW 5 7 29.89 1012 10 16 0.00 0.00
8:52 pm 20:52 Cloudy 57 13.9 51 10.6 81 81 NW 5 7 29.89 1012 10 16 0.00 0.00
9:05 pm 21:05 Cloudy 56 13.3 52 11.1 87 87 NNW 6 9 29.90 1012 10 16 0.00 0.00
9:52 pm 21:52 Cloudy 56 13.3 51 10.6 84 84 NW 6 9 29.90 1013 10 16 0.00 0.00
10:43 pm 22:43 Cloudy 56 13.3 51 10.6 84 84 N 8 13 29.91 1013 10 16 0.00 0.00
10:52 pm 22:52 Cloudy 56 13.3 51 10.6 84 84 N 6 9 29.91 1013 10 16 0.00 0.00
11:52 pm 23:52 Cloudy 56 13.3 51 10.6 84 84 NW 6 9 29.91 1013 10 16 0.00 0.00

Powered by AerisWeather